User: anonymous   Login
Location: Laverne
(36.7100°N, 99.8930°W)
Time: 13:33:42
(UTC-05:00)
Language:

Iridium 32 - Orbit

View from above orbital plane
View from above orbital plane
View from above satellite
View from above satellite

Ground track
Ground track

The orbit data is extracted from the following two-line orbital elements,

1 24945U 97051B   14304.48481599  .00000305  00000-0  10174-3 0   654
2 24945 086.3944 328.2728 0002204 106.9039 253.2398 14.34217669896860
Epoch (UTC): 31 October 2014 11:38:08
Eccentricity: 0.0002204
inclination: 86.3944°
perigee height: 776 km
apogee height: 779 km
right ascension of ascending node: 328.2728°
argument of perigee: 106.9039°
revolutions per day: 14.34217669
mean anomaly at epoch: 253.2398°
orbit number at epoch: 89686

The dashed part of the orbit path shows where the satellite is in the earth's shadow,  

DLR